Weather History for KNLC - March, 2014

Change the Weather History Date:

Thursday, March 13, 2014

  Actual Average Record
Temperature  
Mean Temperature 65 °F -  
Max Temperature 82 °F 67 °F 87 °F (2007)
Min Temperature 48 °F 43 °F 32 °F (2006)
Growing Degree Days 15 (Base 50)    
Moisture  
Dew Point 32 °F    
Average Humidity 35    
Maximum Humidity 64    
Minimum Humidity 12    
Precipitation  
Precipitation 0.00 in - - ()
Sea Level Pressure  
Sea Level Pressure 30.00 in    
Wind  
Wind Speed 11 mph (NNW)    
Max Wind Speed 16 mph    
Max Gust Speed 23 mph    
Visibility 10 miles    
Events      
Averages and records for this station are not official NWS values.
T = Trace of Precipitation, MM = Missing Value Source: NWS Daily Summary

Daily Weather History Graph

Daily Weather History Graph

Search for Another Location

Airport or City:

Trip Planner

Search our weather history database for the weather conditions in past years. The results will help you decide how hot, cold, wet, or windy it might be!

Date:

Astronomy

Mar. 13, 2014 Rise Set
Actual Time 7:13 AM PDT 7:05 PM PDT
Civil Twilight 6:47 AM PDT 7:31 PM PDT
Nautical Twilight 6:17 AM PDT 8:01 PM PDT
Astronomical Twilight 5:47 AM PDT 8:31 PM PDT
Moon 4:39 PM PDT (3/13) 5:19 AM PDT (3/13)
Length of Visible Light 12h 43m
Length of Day
11h 52m
Waxing Gibbous, 92% of the Moon is Illuminated
Mar 13
Waxing Gibbous
Mar 16
Full
Mar 23
Last Quarter
Mar 30
New
Apr 7
First Quarter

Hourly Weather History & Observations

Time (PDT) Temp. Dew Point Humidity Pressure Visibility Wind Dir Wind Speed Gust Speed Precip Events Conditions
12:56 AM 57.0 °F 35.1 °F 44% 30.01 in 10.0 mi NW 9.2 mph - N/A   Clear
1:56 AM 55.9 °F 34.0 °F 44% 30.00 in 10.0 mi NW 12.7 mph - N/A   Clear
2:56 AM 52.0 °F 34.0 °F 50% 30.00 in 10.0 mi NNW 10.4 mph - N/A   Clear
3:56 AM 55.0 °F 35.1 °F 47% 29.98 in 10.0 mi NW 15.0 mph - N/A   Clear
4:56 AM 52.0 °F 35.1 °F 53% 29.98 in 10.0 mi NNW 10.4 mph - N/A   Clear
5:56 AM 48.9 °F 34.0 °F 56% 29.99 in 10.0 mi North 6.9 mph - N/A   Clear
6:56 AM 50.0 °F 36.0 °F 59% 29.99 in 10.0 mi North 4.6 mph - N/A   Partly Cloudy
7:56 AM 48.9 °F 37.0 °F 64% 30.01 in 10.0 mi NW 4.6 mph - N/A   Partly Cloudy
8:56 AM 57.9 °F 37.0 °F 46% 30.02 in 10.0 mi NNW 11.5 mph - N/A   Clear
9:56 AM 63.0 °F 37.0 °F 38% 30.04 in 10.0 mi NNW 16.1 mph - N/A   Clear
10:56 AM 66.0 °F 39.0 °F 37% 30.04 in 10.0 mi NNW 10.4 mph - N/A   Clear
11:56 AM 72.0 °F 30.9 °F 22% 30.03 in 10.0 mi NNW 16.1 mph - N/A   Clear
12:56 PM 75.9 °F 32.0 °F 20% 30.01 in 10.0 mi NNW 16.1 mph 23.0 mph N/A   Clear
1:56 PM 78.1 °F 27.0 °F 15% 29.98 in 10.0 mi North 10.4 mph 19.6 mph N/A   Clear
2:56 PM 81.0 °F 26.1 °F 13% 29.96 in 10.0 mi NNW 10.4 mph - N/A   Clear
3:56 PM 82.0 °F 25.0 °F 12% 29.95 in 10.0 mi NNW 13.8 mph 20.7 mph N/A   Clear
4:56 PM 81.0 °F 26.1 °F 13% 29.94 in 10.0 mi North 15.0 mph - N/A   Clear
5:56 PM 80.1 °F 24.1 °F 13% 29.95 in 10.0 mi North 13.8 mph - N/A   Clear
6:56 PM 73.9 °F 28.0 °F 18% 29.96 in 10.0 mi North 11.5 mph - N/A   Partly Cloudy
7:56 PM 64.9 °F 32.0 °F 29% 29.98 in 10.0 mi North 9.2 mph - N/A   Clear
8:56 PM 60.1 °F 30.9 °F 33% 30.00 in 10.0 mi NNW 8.1 mph - N/A   Clear
9:56 PM 59.0 °F 30.9 °F 35% 30.02 in 10.0 mi West 11.5 mph - N/A   Clear
10:56 PM 57.0 °F 28.9 °F 34% 30.03 in 10.0 mi West 10.4 mph - N/A   Clear
11:56 PM 54.0 °F 30.0 °F 40% 30.04 in 10.0 mi WSW 8.1 mph - N/A   Clear